This is the latest recevied weather packets stored in our database for station/object IU1OLT-6. If no packets are shown the sender has not sent any weather packets the latest 10 day(s).
| Time | Temp. | Humidity | Pressure | Rain* | Wind** | Luminosity | Snow |
|---|---|---|---|---|---|---|---|
| 1788604255 | 21.11° C | 64% | 1016.4 hPa | 0 mm | - | - | - |
| 1788603295 | 20.56° C | 61% | 1016.3 hPa | 0 mm | - | - | - |
| 1788602335 | 21.11° C | 58% | 1016.2 hPa | 0 mm | - | - | - |
| 1788601408 | 21.11° C | 55% | 1016.2 hPa | 0 mm | - | - | - |
| 1788600415 | 21.11° C | 59% | 1016.2 hPa | 0 mm | - | - | - |
| 1788599455 | 20.56° C | 55% | 1016.1 hPa | 0 mm | - | - | - |
| 1788598495 | 20.56° C | 54% | 1016 hPa | 0 mm | - | - | - |
| 1788597535 | 20.56° C | 58% | 1015.8 hPa | 0 mm | - | - | - |
| 1788596575 | 19.44° C | 58% | 1015.6 hPa | 0 mm | - | - | - |
| 1788595615 | 20° C | 63% | 1015.5 hPa | 0 mm | - | - | - |
| 1788594655 | 20° C | 63% | 1015.4 hPa | 0 mm | - | - | - |
| 1788593696 | 20° C | 59% | 1015.3 hPa | 0 mm | - | - | - |
| 1788592735 | 19.44° C | 61% | 1015.2 hPa | 0 mm | - | - | - |
| 1788591775 | 18.33° C | 68% | 1015.1 hPa | 0 mm | - | - | - |
| 1788590815 | 17.78° C | 69% | 1015.1 hPa | 0 mm | - | - | - |
| 1788589855 | 17.22° C | 77% | 1014.9 hPa | 0 mm | - | - | - |
| 1788588895 | 16.67° C | 77% | 1014.9 hPa | 0 mm | - | - | - |
| 1788587935 | 15.56° C | 78% | 1015 hPa | 0 mm | - | - | - |
| 1788587024 | 16.11° C | 75% | 1014.8 hPa | 0 mm | - | - | - |
| 1788586015 | 16.11° C | 78% | 1014.8 hPa | 0 mm | - | - | - |
| 1788585055 | 16.67° C | 77% | 1014.8 hPa | 0 mm | - | - | - |
| 1788584095 | 16.11° C | 77% | 1014.8 hPa | 0 mm | - | - | - |
| 1788583135 | 15.56° C | 74% | 1014.6 hPa | 0 mm | - | - | - |
| 1788582175 | 15.56° C | 72% | 1014.6 hPa | 0 mm | - | - | - |
| 1788581215 | 15.56° C | 71% | 1014.7 hPa | 0 mm | - | - | - |
* Rain latest hour (hover to see other rain measurements)
** Current wind speed in m/s (hover to see current wind gust speed)